Zurück zum Katalog

STARLINK-11692

AktivKommunikationVLEO
NORAD 64381·PAYLOAD·🇺🇸 United States

Gestartet Jun 13, 2025 von Cape Canaveral Space Force Station

Loading…

Nächste Überflüge (nächste 24 Stunden)

TLE

AktuellSource: CelesTrak SupGP

Epoche: Sep 14, 2026, 22:29 UTC

1 64381C 25127M   26257.93729167  .00041090  00000+0  31887-3 0  2575
2 64381  43.0010  23.7198 0001683 282.4439 203.5364 15.70838645    13

Verfolge STARLINK-11692 in Echtzeit mit AllMySat

Download on the App Store